• In Moldova, Republic
  • List of Countries
  • For 7 days
  • Water Temperature
  • Satellite Maps
  • Weather Map
  • Weather Widgets
  • user-avatar
    Login

    Hourly Weather Graz

    Today, 25 May, Thursday

    Time Temperature Precipitation Wind Pressure Humidity
    00:00 +12°C° 1 mm 1 mps 726 mmHg 93%
    01:00 +12°C° 0 mm 1 mps 726 mmHg 95%
    02:00 +11°C° 0.4 mm 1 mps 726 mmHg 96%
    03:00 +10°C° 0.4 mm 1 mps 726 mmHg 96%
    04:00 +9°C° 0.4 mm 1 mps 726 mmHg 96%
    05:00 +10°C° 0 mm 1 mps 726 mmHg 92%
    06:00 +12°C° 0 mm 2 mps 726 mmHg 88%
    07:00 +13°C° 0 mm 2 mps 727 mmHg 83%
    08:00 +15°C° 0 mm 2 mps 727 mmHg 73%
    09:00 +16°C° 0 mm 3 mps 727 mmHg 63%
    10:00 +17°C° 0 mm 3 mps 727 mmHg 53%
    11:00 +18°C° 0 mm 3 mps 727 mmHg 50%
    12:00 +19°C° 0 mm 3 mps 726 mmHg 48%
    13:00 +20°C° 0 mm 3 mps 726 mmHg 46%
    14:00 +20°C° 0 mm 3 mps 726 mmHg 48%
    15:00 +20°C° 0 mm 3 mps 726 mmHg 49%
    16:00 +20°C° 0 mm 3 mps 726 mmHg 51%
    17:00 +18°C° 0 mm 3 mps 725 mmHg 59%
    18:00 +17°C° 0 mm 2 mps 725 mmHg 67%
    19:00 +15°C° 0 mm 1 mps 725 mmHg 76%
    20:00 +14°C° 0 mm 1 mps 725 mmHg 81%
    21:00 +12°C° 0 mm 1 mps 726 mmHg 85%
    22:00 +11°C° 0 mm 1 mps 726 mmHg 90%
    23:00 +9°C° 0 mm 2 mps 726 mmHg 91%

    Tomorrow, 26 May, Friday

    Time Temperature Precipitation Wind Pressure Humidity
    00:00 +9°C° 0 mm 2 mps 726 mmHg 91%
    01:00 +9°C° 0 mm 2 mps 726 mmHg 92%
    02:00 +9°C° 0 mm 2 mps 726 mmHg 92%
    03:00 +9°C° 0 mm 2 mps 726 mmHg 93%
    04:00 +8°C° 0 mm 2 mps 726 mmHg 93%
    05:00 +10°C° 0 mm 2 mps 726 mmHg 87%
    06:00 +13°C° 0 mm 1 mps 726 mmHg 81%
    07:00 +15°C° 0 mm 1 mps 726 mmHg 75%
    08:00 +18°C° 0 mm 1 mps 727 mmHg 67%
    09:00 +19°C° 0 mm 1 mps 727 mmHg 60%
    10:00 +21°C° 0 mm 1 mps 727 mmHg 52%
    11:00 +22°C° 0 mm 1 mps 727 mmHg 50%
    12:00 +21°C° 0 mm 2 mps 726 mmHg 48%
    13:00 +23°C° 0 mm 2 mps 726 mmHg 46%
    14:00 +23°C° 0 mm 2 mps 726 mmHg 48%
    15:00 +23°C° 0 mm 2 mps 726 mmHg 50%
    16:00 +23°C° 0 mm 2 mps 726 mmHg 51%
    17:00 +20°C° 0 mm 2 mps 726 mmHg 61%
    18:00 +18°C° 0 mm 2 mps 726 mmHg 70%
    19:00 +18°C° 0 mm 1 mps 726 mmHg 80%
    20:00 +15°C° 0 mm 1 mps 726 mmHg 84%
    21:00 +13°C° 0 mm 1 mps 726 mmHg 89%
    22:00 +11°C° 0 mm 1 mps 726 mmHg 94%
    23:00 +11°C° 0 mm 1 mps 726 mmHg 94%

    Day after tomorrow, 27 May, Saturday

    Time Temperature Precipitation Wind Pressure Humidity
    00:00 +11°C° 0 mm 1 mps 726 mmHg 94%
    01:00 +11°C° 0 mm 1 mps 727 mmHg 93%
    02:00 +11°C° 0 mm 1 mps 727 mmHg 93%
    03:00 +11°C° 0 mm 1 mps 727 mmHg 93%
    04:00 +11°C° 0 mm 1 mps 727 mmHg 93%
    05:00 +13°C° 0 mm 1 mps 727 mmHg 87%
    06:00 +15°C° 0 mm 1 mps 727 mmHg 80%
    07:00 +18°C° 0 mm 1 mps 728 mmHg 74%
    08:00 +20°C° 0 mm 1 mps 728 mmHg 66%
    09:00 +22°C° 0 mm 1 mps 728 mmHg 58%
    10:00 +24°C° 0 mm 2 mps 728 mmHg 51%
    11:00 +24°C° 0 mm 2 mps 728 mmHg 49%
    12:00 +25°C° 0 mm 2 mps 728 mmHg 48%
    13:00 +25°C° 0 mm 2 mps 728 mmHg 47%
    14:00 +25°C° 0 mm 2 mps 728 mmHg 48%
    15:00 +25°C° 0 mm 2 mps 728 mmHg 50%
    16:00 +25°C° 0 mm 3 mps 728 mmHg 52%
    17:00 +23°C° 0 mm 2 mps 728 mmHg 61%
    18:00 +20°C° 0 mm 2 mps 728 mmHg 71%
    19:00 +19°C° 0 mm 1 mps 728 mmHg 80%
    20:00 +16°C° 0 mm 1 mps 728 mmHg 85%
    21:00 +14°C° 0 mm 1 mps 729 mmHg 89%
    22:00 +13°C° 0 mm 1 mps 729 mmHg 93%
    23:00 +12°C° 0 mm 1 mps 729 mmHg 94%

    28 May, Sunday

    Time Temperature Precipitation Wind Pressure Humidity
    00:00 +11°C° 0 mm 1 mps 729 mmHg 94%
    01:00 +10°C° 0 mm 1 mps 729 mmHg 94%
    02:00 +9°C° 0 mm 0 mps 729 mmHg 94%
    03:00 +9°C° 0 mm 0 mps 729 mmHg 94%
    04:00 +8°C° 0 mm 0 mps 729 mmHg 95%
    05:00 +11°C° 0 mm 0 mps 729 mmHg 88%
    06:00 +14°C° 0 mm 0 mps 730 mmHg 81%
    07:00 +19°C° 0 mm 1 mps 730 mmHg 74%
    08:00 +20°C° 0 mm 1 mps 730 mmHg 68%
    09:00 +22°C° 0 mm 1 mps 730 mmHg 62%
    10:00 +23°C° 0 mm 2 mps 731 mmHg 56%
    11:00 +24°C° 0 mm 2 mps 730 mmHg 54%
    12:00 +25°C° 0 mm 2 mps 730 mmHg 52%
    13:00 +25°C° 0 mm 2 mps 730 mmHg 50%
    14:00 +25°C° 0 mm 2 mps 730 mmHg 51%
    15:00 +25°C° 0 mm 2 mps 729 mmHg 53%
    16:00 +25°C° 0 mm 2 mps 729 mmHg 55%
    17:00 +23°C° 0 mm 2 mps 729 mmHg 64%
    18:00 +21°C° 0 mm 2 mps 729 mmHg 73%
    19:00 +20°C° 0 mm 1 mps 729 mmHg 82%
    20:00 +18°C° 0 mm 1 mps 729 mmHg 86%
    21:00 +15°C° 0 mm 1 mps 729 mmHg 90%
    22:00 +13°C° 0 mm 1 mps 729 mmHg 94%
    23:00 +13°C° 0 mm 1 mps 728 mmHg 94%

    29 May, Monday

    Time Temperature Precipitation Wind Pressure Humidity
    00:00 +12°C° 0 mm 1 mps 728 mmHg 95%
    01:00 +12°C° 0 mm 1 mps 728 mmHg 95%
    02:00 +12°C° 0 mm 1 mps 727 mmHg 95%
    03:00 +12°C° 0 mm 1 mps 727 mmHg 95%
    04:00 +12°C° 0 mm 1 mps 727 mmHg 95%
    05:00 +14°C° 0 mm 1 mps 727 mmHg 89%
    06:00 +18°C° 0 mm 1 mps 727 mmHg 83%
    07:00 +20°C° 0 mm 1 mps 727 mmHg 77%
    08:00 +22°C° 0 mm 1 mps 727 mmHg 69%
    09:00 +24°C° 0 mm 1 mps 727 mmHg 62%
    10:00 +26°C° 0 mm 1 mps 727 mmHg 54%
    11:00 +27°C° 0 mm 2 mps 727 mmHg 52%
    12:00 +28°C° 0 mm 2 mps 727 mmHg 50%
    13:00 +28°C° 0 mm 2 mps 726 mmHg 48%
    14:00 +28°C° 0 mm 2 mps 726 mmHg 51%
    15:00 +28°C° 0 mm 2 mps 725 mmHg 53%
    16:00 +27°C° 0 mm 2 mps 725 mmHg 56%
    17:00 +25°C° 0.1 mm 2 mps 725 mmHg 65%
    18:00 +24°C° 0.1 mm 2 mps 725 mmHg 74%
    19:00 +22°C° 0.1 mm 1 mps 724 mmHg 83%
    20:00 +20°C° 0 mm 1 mps 724 mmHg 87%
    21:00 +18°C° 0 mm 1 mps 724 mmHg 91%
    22:00 +15°C° 0 mm 1 mps 724 mmHg 94%
    23:00 +15°C° 0 mm 1 mps 724 mmHg 94%

    30 May, Tuesday

    Time Temperature Precipitation Wind Pressure Humidity
    00:00 +14°C° 0 mm 1 mps 723 mmHg 94%
    01:00 +14°C° 0 mm 1 mps 723 mmHg 94%
    02:00 +14°C° 0 mm 1 mps 723 mmHg 94%
    03:00 +14°C° 0 mm 1 mps 723 mmHg 94%
    04:00 +13°C° 0 mm 1 mps 723 mmHg 94%
    05:00 +16°C° 0 mm 1 mps 723 mmHg 87%
    06:00 +18°C° 0 mm 0 mps 723 mmHg 80%
    07:00 +21°C° 0 mm 0 mps 724 mmHg 74%
    08:00 +25°C° 0 mm 1 mps 724 mmHg 66%
    09:00 +26°C° 0 mm 1 mps 724 mmHg 59%
    10:00 +28°C° 0 mm 1 mps 724 mmHg 52%
    11:00 +29°C° 0 mm 1 mps 724 mmHg 51%
    12:00 +29°C° 0 mm 2 mps 723 mmHg 50%
    13:00 +30°C° 0 mm 2 mps 723 mmHg 49%
    14:00 +29°C° 0.3 mm 2 mps 723 mmHg 52%
    15:00 +29°C° 0.3 mm 2 mps 723 mmHg 56%
    16:00 +29°C° 0.3 mm 2 mps 723 mmHg 60%
    17:00 +27°C° 0.3 mm 2 mps 722 mmHg 68%
    18:00 +25°C° 0.3 mm 1 mps 722 mmHg 75%
    19:00 +23°C° 0.3 mm 1 mps 722 mmHg 83%
    20:00 +22°C° 0.1 mm 1 mps 722 mmHg 87%
    21:00 +20°C° 0.1 mm 1 mps 722 mmHg 90%
    22:00 +16°C° 0.1 mm 0 mps 722 mmHg 94%
    23:00 +16°C° 0.2 mm 0 mps 722 mmHg 94%
    Show more